| time (UTC) | temp C | wind direction | speed KPH | gust KPH | rain 1hr cm | rain 24hr cm | rain mn cm | humidity % | barometer mb |
| 20260906224725 | 37 | 141 | 6.4 | 20.9 | 0.00 | 0.00 | 0.00 | 38 | 1010.9 |
| 20260906224221 | 37 | 148 | 3.2 | 16.1 | 0.00 | 0.00 | 0.00 | 37 | 1011.0 |
| 20260906223717 | 37 | 150 | 6.4 | 12.9 | 0.00 | 0.00 | 0.00 | 37 | 1010.9 |
| 20260906223213 | 38 | 108 | 8.0 | 20.9 | 0.00 | 0.00 | 0.00 | 37 | 1011.1 |
| 20260906222711 | 37 | 148 | 12.9 | 24.1 | 0.00 | 0.00 | 0.00 | 37 | 1011.0 |
| 20260906222209 | 37 | 126 | 8.0 | 16.1 | 0.00 | 0.00 | 0.00 | 37 | 1011.1 |
| 20260906221708 | 37 | 355 | 14.5 | 29.0 | 0.00 | 0.00 | 0.00 | 37 | 1011.1 |
| 20260906221202 | 37 | 74 | 9.7 | 24.1 | 0.00 | 0.00 | 0.00 | 37 | 1011.2 |
| 20260906220657 | 37 | 146 | 14.5 | 24.1 | 0.00 | 0.00 | 0.00 | 37 | 1011.3 |
| 20260906220153 | 37 | 27 | 6.4 | 20.9 | 0.00 | 0.00 | 0.00 | 36 | 1011.2 |
| 20260906215652 | 37 | 65 | 12.9 | 16.1 | 0.00 | 0.00 | 0.00 | 36 | 1011.4 |
| 20260906215151 | 37 | 184 | 9.7 | 20.9 | 0.00 | 0.00 | 0.00 | 37 | 1011.3 |
| 20260906214649 | 37 | 157 | 14.5 | 24.1 | 0.00 | 0.00 | 0.00 | 37 | 1011.3 |
| 20260906214144 | 37 | 69 | 12.9 | 33.8 | 0.00 | 0.00 | 0.00 | 38 | 1011.5 |
| 20260906213643 | 37 | 141 | 9.7 | 29.0 | 0.00 | 0.00 | 0.00 | 37 | 1011.4 |
| 20260906213138 | 37 | 131 | 3.2 | 20.9 | 0.00 | 0.00 | 0.00 | 37 | 1011.6 |
| 20260906212635 | 38 | 81 | 19.3 | 24.1 | 0.00 | 0.00 | 0.00 | 36 | 1011.7 |
| 20260906212131 | 38 | 137 | 8.0 | 12.9 | 0.00 | 0.00 | 0.00 | 37 | 1011.6 |
| 20260906211631 | 37 | 337 | 4.8 | 16.1 | 0.00 | 0.00 | 0.00 | 38 | 1011.7 |
| 20260906211126 | 37 | 127 | 9.7 | 20.9 | 0.00 | 0.00 | 0.00 | 38 | 1011.8 |
| 20260906210622 | 37 | 47 | 6.4 | 16.1 | 0.00 | 0.00 | 0.00 | 38 | 1011.9 |
| 20260906210116 | 36 | 163 | 8.0 | 20.9 | 0.00 | 0.00 | 0.00 | 40 | 1011.9 |
| 20260906205612 | 36 | 55 | 17.7 | 24.1 | 0.00 | 0.00 | 0.00 | 39 | 1012.1 |
| 20260906205108 | 36 | 41 | 9.7 | 33.8 | 0.00 | 0.00 | 0.00 | 39 | 1012.0 |
| 20260906204607 | 38 | 104 | 11.3 | 29.0 | 0.00 | 0.00 | 0.00 | 38 | 1012.1 |
| 20260906204102 | 36 | 167 | 3.2 | 12.9 | 0.00 | 0.00 | 0.00 | 40 | 1012.2 |
| 20260906203601 | 36 | 158 | 12.9 | 29.0 | 0.00 | 0.00 | 0.00 | 41 | 1012.1 |
| 20260906203056 | 36 | 125 | 0.0 | 12.9 | 0.00 | 0.00 | 0.00 | 41 | 1012.2 |
| 20260906202553 | 37 | 75 | 8.0 | 29.0 | 0.00 | 0.00 | 0.00 | 38 | 1012.4 |
| 20260906202053 | 36 | 55 | 4.8 | 29.0 | 0.00 | 0.00 | 0.00 | 41 | 1012.3 |
| 20260906201554 | 37 | 56 | 6.4 | 33.8 | 0.00 | 0.00 | 0.00 | 39 | 1012.3 |
| 20260906201053 | 37 | 346 | 6.4 | 29.0 | 0.00 | 0.00 | 0.00 | 39 | 1012.3 |
| 20260906200549 | 37 | 138 | 6.4 | 16.1 | 0.00 | 0.00 | 0.00 | 38 | 1012.4 |
| 20260906200045 | 37 | 59 | 3.2 | 12.9 | 0.00 | 0.00 | 0.00 | 39 | 1012.6 |
| 20260906195540 | 37 | 119 | 6.4 | 20.9 | 0.00 | 0.00 | 0.00 | 40 | 1012.5 |
| 20260906195037 | 37 | 17 | 16.1 | 20.9 | 0.00 | 0.00 | 0.00 | 40 | 1012.6 |
| 20260906194532 | 37 | 337 | 12.9 | 29.0 | 0.00 | 0.00 | 0.00 | 40 | 1012.6 |
| 20260906194028 | 37 | 124 | 3.2 | 12.9 | 0.00 | 0.00 | 0.00 | 40 | 1012.8 |
| 20260906193527 | 36 | 78 | 9.7 | 29.0 | 0.00 | 0.00 | 0.00 | 41 | 1012.7 |
| 20260906193023 | 37 | 147 | 6.4 | 16.1 | 0.00 | 0.00 | 0.00 | 41 | 1012.9 |
| 20260906192518 | 36 | 120 | 9.7 | 24.1 | 0.00 | 0.00 | 0.00 | 41 | 1012.8 |
| 20260906192017 | 36 | 156 | 4.8 | 12.9 | 0.00 | 0.00 | 0.00 | 43 | 1012.8 |
| 20260906191512 | 36 | 181 | 0.0 | 20.9 | 0.00 | 0.00 | 0.00 | 42 | 1012.9 |
| 20260906191011 | 37 | 26 | 12.9 | 20.9 | 0.00 | 0.00 | 0.00 | 40 | 1013.2 |
| 20260906190511 | 37 | 96 | 9.7 | 29.0 | 0.00 | 0.00 | 0.00 | 40 | 1013.3 |
| 20260906190006 | 37 | 124 | 19.3 | 33.8 | 0.00 | 0.00 | 0.00 | 40 | 1013.1 |
| 20260906185505 | 36 | 65 | 9.7 | 16.1 | 0.00 | 0.00 | 0.00 | 41 | 1013.2 |
| 20260906185004 | 36 | 189 | 3.2 | 12.9 | 0.00 | 0.00 | 0.00 | 41 | 1013.2 |
| 20260906184459 | 36 | 210 | 9.7 | 16.1 | 0.00 | 0.00 | 0.00 | 42 | 1013.2 |
| 20260906183954 | 36 | 113 | 11.3 | 16.1 | 0.00 | 0.00 | 0.00 | 42 | 1013.3 |
| 20260906183451 | 36 | 126 | 8.0 | 20.9 | 0.00 | 0.00 | 0.00 | 42 | 1013.4 |
| 20260906182946 | 36 | 90 | 8.0 | 16.1 | 0.00 | 0.00 | 0.00 | 43 | 1013.5 |
| 20260906182441 | 36 | 32 | 1.6 | 20.9 | 0.00 | 0.00 | 0.00 | 43 | 1013.4 |
| 20260906181937 | 36 | 192 | 6.4 | 16.1 | 0.00 | 0.00 | 0.00 | 43 | 1013.6 |
| 20260906181433 | 36 | 130 | 3.2 | 20.9 | 0.00 | 0.00 | 0.00 | 44 | 1013.7 |
| 20260906180928 | 36 | 150 | 3.2 | 20.9 | 0.00 | 0.00 | 0.00 | 42 | 1013.8 |
| 20260906180423 | 36 | 123 | 11.3 | 16.1 | 0.00 | 0.00 | 0.00 | 44 | 1013.9 |
| 20260906175921 | 36 | 183 | 8.0 | 16.1 | 0.00 | 0.00 | 0.00 | 41 | 1013.9 |
| 20260906175416 | 36 | 77 | 1.6 | 20.9 | 0.00 | 0.00 | 0.00 | 44 | 1013.9 |
| 20260906174914 | 35 | 57 | 14.5 | 33.8 | 0.00 | 0.00 | 0.00 | 45 | 1014.1 |
| 20260906174408 | 35 | 66 | 17.7 | 24.1 | 0.00 | 0.00 | 0.00 | 45 | 1014.1 |
| 20260906173902 | 35 | 148 | 9.7 | 20.9 | 0.00 | 0.00 | 0.00 | 45 | 1014.2 |
| 20260906173358 | 35 | 131 | 8.0 | 12.9 | 0.00 | 0.00 | 0.00 | 45 | 1014.3 |
| 20260906172857 | 35 | 169 | 12.9 | 24.1 | 0.00 | 0.00 | 0.00 | 46 | 1014.6 |
| 20260906172354 | 35 | 122 | 9.7 | 16.1 | 0.00 | 0.00 | 0.00 | 46 | 1014.6 |
| 20260906171848 | 35 | 146 | 3.2 | 8.0 | 0.00 | 0.00 | 0.00 | 46 | 1014.7 |
| 20260906171343 | 35 | 44 | 4.8 | 12.9 | 0.00 | 0.00 | 0.00 | 47 | 1014.7 |
| 20260906170839 | 35 | 50 | 8.0 | 16.1 | 0.00 | 0.00 | 0.00 | 47 | 1014.8 |
| 20260906170335 | 35 | 154 | 1.6 | 12.9 | 0.00 | 0.00 | 0.00 | 47 | 1014.8 |
| 20260906165831 | 35 | 136 | 3.2 | 20.9 | 0.00 | 0.00 | 0.00 | 48 | 1015.0 |
| 20260906165330 | 35 | 81 | 0.0 | 16.1 | 0.00 | 0.00 | 0.00 | 48 | 1015.0 |
| 20260906164825 | 35 | 123 | 6.4 | 16.1 | 0.00 | 0.00 | 0.00 | 48 | 1015.0 |
| 20260906164325 | 35 | 124 | 9.7 | 24.1 | 0.00 | 0.00 | 0.00 | 47 | 1015.1 |
| 20260906163821 | 34 | 208 | 3.2 | 8.0 | 0.00 | 0.00 | 0.00 | 47 | 1014.9 |
| 20260906163317 | 35 | 156 | 8.0 | 29.0 | 0.00 | 0.00 | 0.00 | 47 | 1015.0 |
| 20260906162814 | 35 | 144 | 4.8 | 16.1 | 0.00 | 0.00 | 0.00 | 48 | 1015.1 |
| 20260906162308 | 33 | 71 | 3.2 | 16.1 | 0.00 | 0.00 | 0.00 | 51 | 1015.1 |
| 20260906161803 | 34 | 61 | 6.4 | 16.1 | 0.00 | 0.00 | 0.00 | 50 | 1014.9 |
| 20260906161302 | 34 | 172 | 6.4 | 8.0 | 0.00 | 0.00 | 0.00 | 51 | 1014.9 |
| 20260906160801 | 35 | 44 | 8.0 | 12.9 | 0.00 | 0.00 | 0.00 | 52 | 1015.1 |
| 20260906160255 | 33 | 168 | 0.0 | 8.0 | 0.00 | 0.00 | 0.00 | 53 | 1015.0 |
| 20260906155753 | 34 | 108 | 4.8 | 24.1 | 0.00 | 0.00 | 0.00 | 52 | 1014.9 |
| 20260906155248 | 34 | 147 | 3.2 | 12.9 | 0.00 | 0.00 | 0.00 | 52 | 1015.0 |
| 20260906154743 | 34 | 50 | 16.1 | 20.9 | 0.00 | 0.00 | 0.00 | 52 | 1014.9 |
| 20260906154239 | 33 | 38 | 6.4 | 16.1 | 0.00 | 0.00 | 0.00 | 54 | 1014.9 |
| 20260906153737 | 33 | 15 | 11.3 | 16.1 | 0.00 | 0.00 | 0.00 | 54 | 1015.0 |
| 20260906153231 | 33 | 156 | 6.4 | 16.1 | 0.00 | 0.00 | 0.00 | 54 | 1015.2 |
| 20260906152727 | 33 | 65 | 4.8 | 8.0 | 0.00 | 0.00 | 0.00 | 56 | 1014.9 |
| 20260906152221 | 33 | 151 | 0.0 | 3.2 | 0.00 | 0.00 | 0.00 | 55 | 1014.6 |
| 20260906151721 | 33 | 157 | 0.0 | 12.9 | 0.00 | 0.00 | 0.00 | 57 | 1014.8 |
| 20260906151217 | 32 | 139 | 0.0 | 8.0 | 0.00 | 0.00 | 0.00 | 58 | 1014.7 |
| 20260906150712 | 32 | 82 | 0.0 | 8.0 | 0.00 | 0.00 | 0.00 | 57 | 1014.6 |
| 20260906150207 | 33 | 106 | 1.6 | 3.2 | 0.00 | 0.00 | 0.00 | 57 | 1014.7 |
| 20260906145706 | 31 | 147 | 0.0 | 8.0 | 0.00 | 0.00 | 0.00 | 60 | 1014.7 |
| 20260906145206 | 32 | 70 | 6.4 | 12.9 | 0.00 | 0.00 | 0.00 | 60 | 1014.6 |
| 20260906144700 | 31 | 173 | 3.2 | 8.0 | 0.00 | 0.00 | 0.00 | 61 | 1014.5 |
| 20260906144155 | 31 | 190 | 4.8 | 12.9 | 0.00 | 0.00 | 0.00 | 62 | 1014.4 |
| 20260906143655 | 30 | 156 | 3.2 | 8.0 | 0.00 | 0.00 | 0.00 | 64 | 1014.6 |
| 20260906143152 | 30 | 134 | 8.0 | 12.9 | 0.00 | 0.00 | 0.00 | 64 | 1014.6 |
| 20260906142646 | 31 | 151 | 0.0 | 12.9 | 0.00 | 0.00 | 0.00 | 62 | 1014.6 |
| 20260906142141 | 31 | 162 | 3.2 | 8.0 | 0.00 | 0.00 | 0.00 | 62 | 1014.8 |
| 20260906141640 | 31 | 134 | 3.2 | 3.2 | 0.00 | 0.00 | 0.00 | 63 | 1014.6 |
| 20260906141135 | 30 | 165 | 1.6 | 12.9 | 0.00 | 0.00 | 0.00 | 65 | 1014.8 |
| 20260906140634 | 31 | 151 | 1.6 | 3.2 | 0.00 | 0.00 | 0.00 | 64 | 1014.4 |
| 20260906140129 | 30 | 156 | 0.0 | 8.0 | 0.00 | 0.00 | 0.00 | 66 | 1014.6 |
| 20260906135626 | 30 | 181 | 1.6 | 8.0 | 0.00 | 0.00 | 0.00 | 65 | 1014.6 |
| 20260906135122 | 30 | 146 | 0.0 | 0.0 | 0.00 | 0.00 | 0.00 | 66 | 1014.6 |
| 20260906134618 | 30 | 159 | 1.6 | 3.2 | 0.00 | 0.00 | 0.00 | 67 | 1014.5 |
| 20260906134113 | 29 | 154 | 0.0 | 3.2 | 0.00 | 0.00 | 0.00 | 69 | 1014.6 |
| 20260906133609 | 28 | 151 | 0.0 | 8.0 | 0.00 | 0.00 | 0.00 | 70 | 1014.5 |
| 20260906133103 | 28 | 37 | 3.2 | 16.1 | 0.00 | 0.00 | 0.00 | 70 | 1014.4 |
| 20260906132558 | 28 | 128 | 0.0 | 3.2 | 0.00 | 0.00 | 0.00 | 71 | 1014.4 |
| 20260906132054 | 28 | 46 | 0.0 | 3.2 | 0.00 | 0.00 | 0.00 | 71 | 1014.4 |
| 20260906131549 | 28 | 83 | 3.2 | 3.2 | 0.00 | 0.00 | 0.00 | 71 | 1014.5 |
| 20260906131044 | 28 | 140 | 0.0 | 0.0 | 0.00 | 0.00 | 0.00 | 72 | 1014.5 |
| 20260906130543 | 27 | 102 | 0.0 | 0.0 | 0.00 | 0.00 | 0.00 | 73 | 1014.5 |
| 20260906130039 | 27 | 124 | 3.2 | 8.0 | 0.00 | 0.00 | 0.00 | 74 | 1014.4 |
| 20260906125536 | 27 | 162 | 0.0 | 3.2 | 0.00 | 0.00 | 0.00 | 75 | 1014.4 |
| 20260906125030 | 26 | 144 | 0.0 | 0.0 | 0.00 | 0.00 | 0.00 | 78 | 1014.4 |
| 20260906124526 | 25 | 148 | 0.0 | 0.0 | 0.00 | 0.00 | 0.00 | 80 | 1014.4 |
| 20260906124021 | 25 | 168 | 0.0 | 0.0 | 0.00 | 0.00 | 0.00 | 81 | 1014.4 |
| 20260906123519 | 25 | 172 | 0.0 | 0.0 | 0.00 | 0.00 | 0.00 | 81 | 1014.3 |
| 20260906123015 | 25 | 145 | 0.0 | 0.0 | 0.00 | 0.00 | 0.00 | 83 | 1014.2 |
| 20260906122509 | 24 | 158 | 0.0 | 0.0 | 0.00 | 0.00 | 0.00 | 84 | 1014.2 |
| 20260906122005 | 24 | 157 | 0.0 | 0.0 | 0.00 | 0.00 | 0.00 | 84 | 1013.9 |
| 20260906121501 | 24 | 186 | 0.0 | 0.0 | 0.00 | 0.00 | 0.00 | 84 | 1014.2 |
| 20260906120957 | 24 | 168 | 0.0 | 0.0 | 0.00 | 0.00 | 0.00 | 84 | 1013.9 |
| 20260906120452 | 24 | 168 | 0.0 | 0.0 | 0.00 | 0.00 | 0.00 | 84 | 1013.8 |
| 20260906115949 | 24 | 176 | 0.0 | 0.0 | 0.00 | 0.00 | 0.00 | 83 | 1013.7 |
| 20260906115444 | 25 | 178 | 0.0 | 3.2 | 0.00 | 0.00 | 0.00 | 82 | 1013.9 |
| 20260906114944 | 25 | 212 | 0.0 | 0.0 | 0.00 | 0.00 | 0.00 | 81 | 1013.8 |
| 20260906114438 | 25 | 147 | 0.0 | 0.0 | 0.00 | 0.00 | 0.00 | 81 | 1013.5 |
| 20260906113934 | 25 | 150 | 0.0 | 0.0 | 0.00 | 0.00 | 0.00 | 81 | 1013.4 |
| 20260906113432 | 25 | 174 | 0.0 | 3.2 | 0.00 | 0.00 | 0.00 | 80 | 1013.4 |
| 20260906112928 | 25 | 149 | 0.0 | 3.2 | 0.00 | 0.00 | 0.00 | 81 | 1013.4 |
| 20260906112424 | 25 | 172 | 3.2 | 8.0 | 0.00 | 0.00 | 0.00 | 81 | 1013.5 |
| 20260906111919 | 25 | 163 | 0.0 | 0.0 | 0.00 | 0.00 | 0.00 | 82 | 1013.4 |
| 20260906111418 | 25 | 142 | 0.0 | 0.0 | 0.00 | 0.00 | 0.00 | 82 | 1013.4 |
| 20260906110914 | 25 | 168 | 0.0 | 0.0 | 0.00 | 0.00 | 0.00 | 82 | 1013.2 |
| 20260906110409 | 25 | 166 | 0.0 | 0.0 | 0.00 | 0.00 | 0.00 | 83 | 1013.3 |
| 20260906105908 | 25 | 122 | 0.0 | 0.0 | 0.00 | 0.00 | 0.00 | 83 | 1013.3 |
| 20260906105404 | 25 | 122 | 0.0 | 0.0 | 0.00 | 0.00 | 0.00 | 83 | 1013.4 |
| 20260906104859 | 25 | 128 | 0.0 | 0.0 | 0.00 | 0.00 | 0.00 | 83 | 1013.2 |
| 20260906104358 | 24 | 128 | 0.0 | 0.0 | 0.00 | 0.00 | 0.00 | 83 | 1012.9 |
| 20260906103857 | 24 | 128 | 0.0 | 0.0 | 0.00 | 0.00 | 0.00 | 83 | 1013.0 |
| 20260906103355 | 25 | 128 | 0.0 | 0.0 | 0.00 | 0.00 | 0.00 | 82 | 1013.1 |
| 20260906102852 | 25 | 128 | 0.0 | 0.0 | 0.00 | 0.00 | 0.00 | 82 | 1013.4 |
| 20260906102350 | 25 | 128 | 0.0 | 0.0 | 0.00 | 0.00 | 0.00 | 81 | 1013.1 |
| 20260906101845 | 25 | 128 | 0.0 | 0.0 | 0.00 | 0.00 | 0.00 | 81 | 1013.3 |
| 20260906101341 | 25 | 128 | 0.0 | 0.0 | 0.00 | 0.00 | 0.00 | 81 | 1013.2 |
| 20260906100836 | 25 | 128 | 0.0 | 0.0 | 0.00 | 0.00 | 0.00 | 80 | 1013.4 |
| 20260906100335 | 25 | 128 | 1.6 | 3.2 | 0.00 | 0.00 | 0.00 | 79 | 1013.1 |
| 20260906095830 | 25 | 181 | 0.0 | 0.0 | 0.00 | 0.00 | 0.00 | 78 | 1013.0 |
| 20260906095326 | 26 | 178 | 0.0 | 0.0 | 0.00 | 0.00 | 0.00 | 78 | 1012.7 |
| 20260906094825 | 26 | 154 | 0.0 | 3.2 | 0.00 | 0.00 | 0.00 | 77 | 1012.9 |
| 20260906094320 | 26 | 152 | 0.0 | 0.0 | 0.00 | 0.00 | 0.00 | 77 | 1012.7 |
| 20260906093818 | 26 | 215 | 3.2 | 8.0 | 0.00 | 0.00 | 0.00 | 77 | 1012.6 |
| 20260906093313 | 26 | 110 | 0.0 | 3.2 | 0.00 | 0.00 | 0.00 | 77 | 1012.6 |
| 20260906092807 | 26 | 159 | 0.0 | 8.0 | 0.00 | 0.00 | 0.00 | 76 | 1012.6 |
| 20260906092301 | 26 | 132 | 6.4 | 12.9 | 0.00 | 0.00 | 0.00 | 76 | 1012.4 |
| 20260906091757 | 26 | 135 | 6.4 | 8.0 | 0.00 | 0.00 | 0.00 | 76 | 1012.5 |
| 20260906091253 | 26 | 140 | 4.8 | 12.9 | 0.00 | 0.00 | 0.00 | 76 | 1012.4 |
| 20260906090749 | 26 | 111 | 0.0 | 8.0 | 0.00 | 0.00 | 0.00 | 76 | 1012.5 |
| 20260906090248 | 26 | 159 | 4.8 | 16.1 | 0.00 | 0.00 | 0.00 | 76 | 1012.3 |
| 20260906085748 | 26 | 164 | 3.2 | 16.1 | 0.00 | 0.00 | 0.00 | 76 | 1012.4 |
| 20260906085247 | 26 | 130 | 8.0 | 12.9 | 0.00 | 0.00 | 0.00 | 76 | 1012.6 |
| 20260906084742 | 26 | 131 | 0.0 | 16.1 | 0.00 | 0.00 | 0.00 | 76 | 1012.6 |
| 20260906084242 | 26 | 98 | 9.7 | 12.9 | 0.00 | 0.00 | 0.00 | 76 | 1012.4 |
| 20260906083737 | 26 | 150 | 0.0 | 12.9 | 0.00 | 0.00 | 0.00 | 76 | 1012.4 |
| 20260906083232 | 26 | 166 | 0.0 | 8.0 | 0.00 | 0.00 | 0.00 | 76 | 1012.3 |
| 20260906082727 | 26 | 157 | 0.0 | 3.2 | 0.00 | 0.00 | 0.00 | 76 | 1012.4 |
| 20260906082222 | 26 | 159 | 3.2 | 16.1 | 0.00 | 0.00 | 0.00 | 76 | 1012.3 |
| 20260906081718 | 26 | 127 | 0.0 | 8.0 | 0.00 | 0.00 | 0.00 | 76 | 1012.6 |
| 20260906081213 | 27 | 139 | 0.0 | 3.2 | 0.00 | 0.00 | 0.00 | 76 | 1012.5 |
| 20260906080710 | 27 | 130 | 1.6 | 3.2 | 0.00 | 0.00 | 0.00 | 75 | 1012.8 |
| 20260906080206 | 27 | 139 | 0.0 | 8.0 | 0.00 | 0.00 | 0.00 | 75 | 1012.9 |
| 20260906075706 | 27 | 154 | 0.0 | 0.0 | 0.00 | 0.00 | 0.00 | 75 | 1012.8 |
| 20260906075200 | 27 | 113 | 0.0 | 8.0 | 0.00 | 0.00 | 0.00 | 75 | 1012.8 |
| 20260906074655 | 27 | 145 | 3.2 | 8.0 | 0.00 | 0.00 | 0.00 | 75 | 1012.9 |
| 20260906074154 | 27 | 139 | 3.2 | 12.9 | 0.00 | 0.00 | 0.00 | 74 | 1013.1 |
| 20260906073650 | 27 | 124 | 1.6 | 3.2 | 0.00 | 0.00 | 0.00 | 74 | 1013.0 |
| 20260906073145 | 27 | 169 | 0.0 | 0.0 | 0.00 | 0.00 | 0.00 | 74 | 1013.0 |
| 20260906072640 | 27 | 144 | 0.0 | 0.0 | 0.00 | 0.00 | 0.00 | 74 | 1012.8 |
| 20260906072136 | 27 | 174 | 0.0 | 3.2 | 0.00 | 0.00 | 0.00 | 74 | 1012.8 |
| 20260906071632 | 27 | 166 | 3.2 | 3.2 | 0.00 | 0.00 | 0.00 | 74 | 1012.8 |
| 20260906071132 | 27 | 137 | 0.0 | 3.2 | 0.00 | 0.00 | 0.00 | 74 | 1012.9 |
| 20260906070628 | 27 | 160 | 0.0 | 0.0 | 0.00 | 0.00 | 0.00 | 74 | 1012.9 |
| 20260906070124 | 27 | 207 | 1.6 | 3.2 | 0.00 | 0.00 | 0.00 | 73 | 1012.7 |
| 20260906065623 | 27 | 197 | 3.2 | 8.0 | 0.00 | 0.00 | 0.00 | 73 | 1012.9 |
| 20260906065119 | 27 | 157 | 0.0 | 3.2 | 0.00 | 0.00 | 0.00 | 72 | 1012.8 |
| 20260906064614 | 27 | 138 | 0.0 | 8.0 | 0.00 | 0.00 | 0.00 | 72 | 1012.8 |
| 20260906064109 | 27 | 149 | 0.0 | 8.0 | 0.00 | 0.00 | 0.00 | 72 | 1012.9 |
| 20260906063604 | 27 | 127 | 0.0 | 3.2 | 0.00 | 0.00 | 0.00 | 72 | 1013.1 |
| 20260906063101 | 27 | 134 | 1.6 | 3.2 | 0.00 | 0.00 | 0.00 | 71 | 1013.1 |
| 20260906062556 | 28 | 166 | 0.0 | 3.2 | 0.00 | 0.00 | 0.00 | 71 | 1013.0 |
| 20260906062055 | 28 | 197 | 0.0 | 3.2 | 0.00 | 0.00 | 0.00 | 70 | 1013.0 |
| 20260906061552 | 28 | 156 | 1.6 | 3.2 | 0.00 | 0.00 | 0.00 | 70 | 1013.1 |
| 20260906061050 | 28 | 147 | 0.0 | 8.0 | 0.00 | 0.00 | 0.00 | 69 | 1013.1 |
| 20260906060547 | 28 | 148 | 0.0 | 3.2 | 0.00 | 0.00 | 0.00 | 70 | 1013.0 |
| 20260906060044 | 28 | 165 | 0.0 | 8.0 | 0.00 | 0.00 | 0.00 | 69 | 1013.2 |
| 20260906055540 | 28 | 152 | 0.0 | 3.2 | 0.00 | 0.00 | 0.00 | 69 | 1013.0 |
| 20260906055035 | 28 | 171 | 0.0 | 3.2 | 0.00 | 0.00 | 0.00 | 69 | 1013.1 |
| 20260906054535 | 28 | 137 | 1.6 | 8.0 | 0.00 | 0.00 | 0.00 | 68 | 1013.1 |
| 20260906054030 | 28 | 146 | 3.2 | 8.0 | 0.00 | 0.00 | 0.00 | 68 | 1013.1 |
| 20260906053527 | 28 | 228 | 0.0 | 0.0 | 0.00 | 0.00 | 0.00 | 68 | 1013.2 |
| 20260906053022 | 28 | 114 | 0.0 | 8.0 | 0.00 | 0.00 | 0.00 | 68 | 1013.2 |
| 20260906052518 | 29 | 209 | 0.0 | 3.2 | 0.00 | 0.00 | 0.00 | 67 | 1013.4 |
| 20260906052015 | 29 | 171 | 3.2 | 8.0 | 0.00 | 0.00 | 0.00 | 67 | 1013.3 |
| 20260906051510 | 29 | 164 | 1.6 | 8.0 | 0.00 | 0.00 | 0.00 | 67 | 1013.2 |
| 20260906051005 | 29 | 140 | 1.6 | 12.9 | 0.00 | 0.00 | 0.00 | 67 | 1013.2 |
| 20260906050500 | 29 | 102 | 3.2 | 8.0 | 0.00 | 0.00 | 0.00 | 67 | 1013.1 |
| 20260906045959 | 29 | 149 | 1.6 | 12.9 | 0.00 | 0.00 | 0.00 | 67 | 1013.1 |
| 20260906045458 | 29 | 142 | 3.2 | 3.2 | 0.00 | 0.00 | 0.00 | 66 | 1013.0 |
| 20260906044954 | 29 | 138 | 1.6 | 16.1 | 0.00 | 0.00 | 0.00 | 66 | 1013.2 |
| 20260906044449 | 30 | 124 | 3.2 | 3.2 | 0.00 | 0.00 | 0.00 | 66 | 1013.1 |
| 20260906043945 | 30 | 215 | 3.2 | 8.0 | 0.00 | 0.00 | 0.00 | 66 | 1013.0 |
| 20260906043441 | 30 | 196 | 3.2 | 16.1 | 0.00 | 0.00 | 0.00 | 65 | 1013.0 |
| 20260906042936 | 30 | 149 | 4.8 | 16.1 | 0.00 | 0.00 | 0.00 | 65 | 1012.8 |
| 20260906042435 | 30 | 159 | 14.5 | 16.1 | 0.00 | 0.00 | 0.00 | 65 | 1012.8 |
| 20260906041930 | 30 | 110 | 9.7 | 16.1 | 0.00 | 0.00 | 0.00 | 64 | 1012.9 |
| 20260906041426 | 30 | 131 | 4.8 | 12.9 | 0.00 | 0.00 | 0.00 | 64 | 1013.0 |
| 20260906040920 | 30 | 141 | 9.7 | 24.1 | 0.00 | 0.00 | 0.00 | 64 | 1012.9 |
| 20260906040415 | 30 | 180 | 11.3 | 16.1 | 0.00 | 0.00 | 0.00 | 63 | 1012.9 |
| 20260906035910 | 30 | 173 | 16.1 | 20.9 | 0.00 | 0.00 | 0.00 | 63 | 1012.9 |
| 20260906035401 | 30 | 149 | 8.0 | 16.1 | 0.00 | 0.00 | 0.00 | 63 | 1012.9 |
| 20260906034855 | 30 | 177 | 0.0 | 8.0 | 0.00 | 0.00 | 0.00 | 63 | 1012.9 |
| 20260906034350 | 30 | 195 | 6.4 | 12.9 | 0.00 | 0.00 | 0.00 | 62 | 1012.9 |
| 20260906033846 | 30 | 203 | 4.8 | 12.9 | 0.00 | 0.00 | 0.00 | 62 | 1012.9 |
| 20260906033345 | 31 | 166 | 14.5 | 20.9 | 0.00 | 0.00 | 0.00 | 61 | 1013.1 |
| 20260906032842 | 31 | 111 | 4.8 | 16.1 | 0.00 | 0.00 | 0.00 | 61 | 1012.8 |
| 20260906032337 | 31 | 153 | 0.0 | 8.0 | 0.00 | 0.00 | 0.00 | 60 | 1013.1 |
| 20260906031832 | 31 | 177 | 1.6 | 8.0 | 0.00 | 0.00 | 0.00 | 59 | 1013.0 |
| 20260906031328 | 31 | 104 | 3.2 | 8.0 | 0.00 | 0.00 | 0.00 | 59 | 1012.8 |
| 20260906030828 | 31 | 116 | 3.2 | 8.0 | 0.00 | 0.00 | 0.00 | 59 | 1013.0 |
| 20260906030323 | 31 | 157 | 0.0 | 8.0 | 0.00 | 0.00 | 0.00 | 58 | 1012.9 |
| 20260906025822 | 31 | 158 | 6.4 | 8.0 | 0.00 | 0.00 | 0.00 | 57 | 1012.9 |
| 20260906025317 | 31 | 171 | 17.7 | 20.9 | 0.00 | 0.00 | 0.00 | 57 | 1012.8 |
| 20260906024816 | 31 | 109 | 3.2 | 12.9 | 0.00 | 0.00 | 0.00 | 56 | 1012.6 |
| 20260906024310 | 31 | 130 | 6.4 | 12.9 | 0.00 | 0.00 | 0.00 | 56 | 1012.6 |
| 20260906023805 | 31 | 134 | 9.7 | 20.9 | 0.00 | 0.00 | 0.00 | 55 | 1012.4 |
| 20260906023301 | 31 | 161 | 9.7 | 12.9 | 0.00 | 0.00 | 0.00 | 55 | 1012.4 |
| 20260906022756 | 32 | 167 | 6.4 | 16.1 | 0.00 | 0.00 | 0.00 | 55 | 1012.3 |
| 20260906022251 | 32 | 198 | 11.3 | 20.9 | 0.00 | 0.00 | 0.00 | 54 | 1012.3 |
| 20260906021747 | 32 | 147 | 6.4 | 16.1 | 0.00 | 0.00 | 0.00 | 54 | 1012.2 |
| 20260906021246 | 32 | 163 | 12.9 | 16.1 | 0.00 | 0.00 | 0.00 | 53 | 1012.2 |
| 20260906020741 | 32 | 80 | 6.4 | 24.1 | 0.00 | 0.00 | 0.00 | 53 | 1012.0 |
| 20260906020235 | 32 | 153 | 9.7 | 20.9 | 0.00 | 0.00 | 0.00 | 52 | 1012.1 |
| 20260906015730 | 32 | 172 | 24.1 | 37.0 | 0.00 | 0.00 | 0.00 | 51 | 1011.9 |
| 20260906015228 | 33 | 155 | 20.9 | 29.0 | 0.00 | 0.00 | 0.00 | 50 | 1012.0 |
| 20260906014723 | 33 | 201 | 11.3 | 29.0 | 0.00 | 0.00 | 0.00 | 46 | 1011.5 |
| 20260906014219 | 34 | 168 | 3.2 | 12.9 | 0.00 | 0.00 | 0.00 | 45 | 1011.6 |
| 20260906013715 | 34 | 175 | 3.2 | 16.1 | 0.00 | 0.00 | 0.00 | 45 | 1011.5 |
| 20260906013214 | 34 | 199 | 9.7 | 12.9 | 0.00 | 0.00 | 0.00 | 44 | 1011.3 |
| 20260906012709 | 34 | 162 | 6.4 | 12.9 | 0.00 | 0.00 | 0.00 | 44 | 1011.2 |
| 20260906012204 | 34 | 164 | 12.9 | 20.9 | 0.00 | 0.00 | 0.00 | 43 | 1011.2 |
| 20260906011659 | 34 | 124 | 16.1 | 20.9 | 0.00 | 0.00 | 0.00 | 42 | 1011.2 |
| 20260906011153 | 35 | 143 | 1.6 | 8.0 | 0.00 | 0.00 | 0.00 | 42 | 1011.0 |
| 20260906010649 | 35 | 142 | 3.2 | 3.2 | 0.00 | 0.00 | 0.00 | 41 | 1011.1 |
| 20260906010146 | 35 | 105 | 8.0 | 12.9 | 0.00 | 0.00 | 0.00 | 41 | 1011.1 |
| 20260906005645 | 35 | 101 | 3.2 | 12.9 | 0.00 | 0.00 | 0.00 | 40 | 1011.0 |
| 20260906005144 | 35 | 134 | 8.0 | 16.1 | 0.00 | 0.00 | 0.00 | 40 | 1011.1 |
| 20260906004644 | 35 | 159 | 8.0 | 12.9 | 0.00 | 0.00 | 0.00 | 40 | 1011.0 |
| 20260906004139 | 35 | 107 | 6.4 | 8.0 | 0.00 | 0.00 | 0.00 | 40 | 1011.1 |
| 20260906003634 | 35 | 149 | 4.8 | 8.0 | 0.00 | 0.00 | 0.00 | 39 | 1010.9 |
| 20260906003130 | 36 | 122 | 1.6 | 8.0 | 0.00 | 0.00 | 0.00 | 38 | 1011.0 |
| 20260906002625 | 36 | 148 | 6.4 | 8.0 | 0.00 | 0.00 | 0.00 | 38 | 1011.1 |
| 20260906002119 | 36 | 158 | 4.8 | 12.9 | 0.00 | 0.00 | 0.00 | 38 | 1011.0 |
| 20260906001615 | 36 | 158 | 3.2 | 12.9 | 0.00 | 0.00 | 0.00 | 39 | 1011.0 |
| 20260906001109 | 36 | 169 | 6.4 | 8.0 | 0.00 | 0.00 | 0.00 | 39 | 1010.9 |
| 20260906000605 | 36 | 140 | 8.0 | 12.9 | 0.00 | 0.00 | 0.00 | 39 | 1010.7 |
| 20260906000100 | 36 | 82 | 6.4 | 12.9 | 0.00 | 0.00 | 0.00 | 39 | 1010.9 |
| 20260905235559 | 36 | 161 | 9.7 | 12.9 | 0.00 | 0.00 | 0.00 | 39 | 1010.9 |
| 20260905235054 | 36 | 123 | 9.7 | 16.1 | 0.00 | 0.00 | 0.00 | 38 | 1010.9 |
| 20260905234550 | 36 | 157 | 3.2 | 8.0 | 0.00 | 0.00 | 0.00 | 38 | 1010.8 |
| 20260905234045 | 36 | 125 | 6.4 | 12.9 | 0.00 | 0.00 | 0.00 | 38 | 1010.8 |
| 20260905233545 | 37 | 149 | 8.0 | 12.9 | 0.00 | 0.00 | 0.00 | 38 | 1010.7 |
| 20260905233045 | 37 | 146 | 0.0 | 16.1 | 0.00 | 0.00 | 0.00 | 38 | 1010.9 |
| 20260905232540 | 37 | 213 | 1.6 | 12.9 | 0.00 | 0.00 | 0.00 | 37 | 1010.8 |
| 20260905232036 | 37 | 190 | 0.0 | 8.0 | 0.00 | 0.00 | 0.00 | 37 | 1010.8 |
| 20260905231531 | 37 | 87 | 3.2 | 3.2 | 0.00 | 0.00 | 0.00 | 37 | 1010.8 |
| 20260905231027 | 37 | 143 | 6.4 | 20.9 | 0.00 | 0.00 | 0.00 | 36 | 1010.7 |
| 20260905230526 | 37 | 154 | 8.0 | 20.9 | 0.00 | 0.00 | 0.00 | 37 | 1010.8 |
| 20260905230025 | 37 | 199 | 0.0 | 8.0 | 0.00 | 0.00 | 0.00 | 37 | 1010.7 |
| 20260905225519 | 37 | 141 | 9.7 | 16.1 | 0.00 | 0.00 | 0.00 | 36 | 1010.7 |